TimePDT,TemperatureF,Dew PointF,Humidity,Sea Level PressureIn,VisibilityMPH,Wind Direction,Wind SpeedMPH,Gust SpeedMPH,PrecipitationIn,Events,Conditions,WindDirDegrees,DateUTC
12:54 AM,70.0,51.1,51,29.95,10.0,NW,8.1,-,N/A,,Clear,310,2013-08-08 07:54:00
1:54 AM,66.9,53.1,61,29.95,10.0,NNW,6.9,-,N/A,,Clear,330,2013-08-08 08:54:00
2:54 AM,66.9,54.0,63,29.96,10.0,Calm,Calm,-,N/A,,Clear,0,2013-08-08 09:54:00
3:54 AM,64.9,54.0,68,29.96,10.0,NW,5.8,25.3,N/A,,Clear,310,2013-08-08 10:54:00
4:54 AM,64.9,54.0,68,29.96,10.0,North,3.5,-,N/A,,Clear,350,2013-08-08 11:54:00
5:54 AM,64.9,53.1,65,29.97,10.0,Calm,Calm,-,N/A,,Clear,0,2013-08-08 12:54:00
6:54 AM,66.0,53.1,63,29.97,10.0,Calm,Calm,-,N/A,,Clear,0,2013-08-08 13:54:00
7:54 AM,68.0,53.1,59,29.98,10.0,WNW,5.8,-,N/A,,Clear,300,2013-08-08 14:54:00
8:54 AM,69.1,54.0,58,29.99,10.0,Calm,Calm,-,N/A,,Clear,0,2013-08-08 15:54:00
9:54 AM,73.0,54.0,51,29.98,10.0,Calm,Calm,-,N/A,,Clear,0,2013-08-08 16:54:00
10:54 AM,77.0,53.1,43,29.96,10.0,Calm,Calm,-,N/A,,Clear,0,2013-08-08 17:54:00
11:54 AM,80.1,52.0,38,29.95,10.0,Variable,6.9,-,N/A,,Clear,0,2013-08-08 18:54:00
12:54 PM,82.9,48.9,31,29.93,10.0,West,6.9,-,N/A,,Clear,280,2013-08-08 19:54:00
1:54 PM,87.1,51.1,29,29.91,10.0,NW,11.5,18.4,N/A,,Clear,310,2013-08-08 20:54:00
2:54 PM,89.1,46.9,23,29.88,10.0,NNW,13.8,19.6,N/A,,Clear,340,2013-08-08 21:54:00
3:54 PM,90.0,45.0,21,29.86,10.0,NNW,11.5,18.4,N/A,,Clear,330,2013-08-08 22:54:00
4:54 PM,91.0,39.0,16,29.85,10.0,North,9.2,-,N/A,,Clear,350,2013-08-08 23:54:00
5:54 PM,89.1,46.0,22,29.84,10.0,West,10.4,-,N/A,,Clear,280,2013-08-09 00:54:00
6:54 PM,88.0,45.0,22,29.83,10.0,NW,5.8,-,N/A,,Clear,320,2013-08-09 01:54:00
7:54 PM,82.9,46.9,28,29.83,10.0,NNW,6.9,-,N/A,,Clear,330,2013-08-09 02:54:00
8:54 PM,81.0,44.1,27,29.84,10.0,North,4.6,-,N/A,,Clear,360,2013-08-09 03:54:00
9:54 PM,78.1,44.1,30,29.85,10.0,North,5.8,-,N/A,,Clear,10,2013-08-09 04:54:00
10:54 PM,75.9,46.0,35,29.86,10.0,NNW,8.1,-,N/A,,Clear,340,2013-08-09 05:54:00
11:54 PM,73.9,39.9,29,29.86,10.0,NNW,9.2,-,N/A,,Clear,340,2013-08-09 06:54:00